| time (UTC) | temp F | wind direction | speed knots | gust knots | rain 1hr in | rain 24hr in | rain mn in | humidity % | barometer mb |
| 20260507114003 | 67 | 288 | 8.7 | 17.4 | 0.00 | 0.00 | 0.00 | 39 | 1025.4 |
| 20260507113503 | 67 | 289 | 7.8 | 13.9 | 0.00 | 0.00 | 0.00 | 41 | 1025.3 |
| 20260507113024 | 67 | 285 | 7.8 | 14.8 | 0.00 | 0.00 | 0.00 | 41 | 1025.4 |
| 20260507112503 | 66 | 275 | 8.7 | 14.8 | 0.00 | 0.00 | 0.00 | 43 | 1025.5 |
| 20260507112003 | 66 | 278 | 9.6 | 17.4 | 0.00 | 0.00 | 0.00 | 43 | 1025.5 |
| 20260507111504 | 65 | 288 | 9.6 | 17.4 | 0.00 | 0.00 | 0.00 | 42 | 1025.5 |
| 20260507111003 | 65 | 291 | 10.4 | 17.4 | 0.00 | 0.00 | 0.00 | 40 | 1025.4 |
| 20260507110503 | 65 | 286 | 11.3 | 17.4 | 0.00 | 0.00 | 0.00 | 39 | 1025.7 |
| 20260507110003 | 66 | 286 | 11.3 | 19.1 | 0.00 | 0.00 | 0.00 | 41 | 1025.8 |
| 20260507105503 | 66 | 288 | 12.2 | 20.0 | 0.00 | 0.00 | 0.00 | 41 | 1025.8 |
| 20260507105024 | 66 | 285 | 11.3 | 20.0 | 0.00 | 0.00 | 0.00 | 40 | 1025.5 |
| 20260507104504 | 66 | 279 | 10.4 | 19.1 | 0.00 | 0.00 | 0.00 | 43 | 1025.8 |
| 20260507104003 | 65 | 262 | 9.6 | 19.1 | 0.00 | 0.00 | 0.00 | 43 | 1025.7 |
| 20260507103503 | 65 | 246 | 8.7 | 14.8 | 0.00 | 0.00 | 0.00 | 45 | 1025.8 |
| 20260507103003 | 64 | 256 | 9.6 | 14.8 | 0.00 | 0.00 | 0.00 | 47 | 1025.8 |
| 20260507102503 | 64 | 267 | 8.7 | 12.2 | 0.00 | 0.00 | 0.00 | 47 | 1026.0 |
| 20260507102003 | 64 | 269 | 7.0 | 12.2 | 0.00 | 0.00 | 0.00 | 48 | 1026.2 |
| 20260507101524 | 64 | 269 | 5.2 | 10.4 | 0.00 | 0.00 | 0.00 | 51 | 1026.3 |
| 20260507101003 | 64 | 278 | 3.5 | 7.0 | 0.00 | 0.00 | 0.00 | 51 | 1026.1 |
| 20260507100524 | 65 | 287 | 3.5 | 7.0 | 0.00 | 0.00 | 0.00 | 50 | 1026.0 |
| 20260507100003 | 65 | 283 | 3.5 | 7.0 | 0.00 | 0.00 | 0.00 | 50 | 1026.0 |
| 20260507095524 | 65 | 273 | 4.3 | 7.0 | 0.00 | 0.00 | 0.00 | 50 | 1026.0 |
| 20260507095003 | 65 | 263 | 3.5 | 7.8 | 0.00 | 0.00 | 0.00 | 49 | 1026.1 |
| 20260507094503 | 65 | 278 | 3.5 | 7.8 | 0.00 | 0.00 | 0.00 | 51 | 1025.7 |
| 20260507094003 | 65 | 277 | 3.5 | 7.0 | 0.00 | 0.00 | 0.00 | 49 | 1026.0 |
| 20260507093503 | 64 | 207 | 3.5 | 8.7 | 0.00 | 0.00 | 0.00 | 52 | 1026.0 |
| 20260507093003 | 64 | 176 | 3.5 | 8.7 | 0.00 | 0.00 | 0.00 | 54 | 1026.1 |
| 20260507092503 | 64 | 157 | 2.6 | 8.7 | 0.00 | 0.00 | 0.00 | 55 | 1026.0 |
| 20260507092003 | 62 | 145 | 2.6 | 7.0 | 0.00 | 0.00 | 0.00 | 58 | 1026.1 |
| 20260507091503 | 62 | 154 | 3.5 | 7.0 | 0.00 | 0.00 | 0.00 | 59 | 1025.7 |
| 20260507091003 | 62 | 163 | 4.3 | 7.0 | 0.00 | 0.00 | 0.00 | 60 | 1026.0 |
| 20260507090503 | 61 | 166 | 5.2 | 9.6 | 0.00 | 0.00 | 0.00 | 61 | 1026.0 |
| 20260507090024 | 61 | 163 | 5.2 | 9.6 | 0.00 | 0.00 | 0.00 | 63 | 1025.8 |
| 20260507085503 | 60 | 157 | 5.2 | 9.6 | 0.00 | 0.00 | 0.00 | 65 | 1026.0 |
| 20260507085003 | 60 | 166 | 5.2 | 9.6 | 0.00 | 0.00 | 0.00 | 66 | 1025.7 |
| 20260507084503 | 60 | 179 | 5.2 | 11.3 | 0.00 | 0.00 | 0.00 | 66 | 1026.1 |
| 20260507084003 | 59 | 175 | 6.1 | 11.3 | 0.00 | 0.00 | 0.00 | 67 | 1026.0 |
| 20260507083503 | 60 | 167 | 6.1 | 10.4 | 0.00 | 0.00 | 0.00 | 68 | 1025.5 |
| 20260507083003 | 59 | 158 | 7.0 | 11.3 | 0.00 | 0.00 | 0.00 | 70 | 1025.6 |
| 20260507082503 | 58 | 144 | 5.2 | 11.3 | 0.00 | 0.00 | 0.00 | 71 | 1026.0 |
| 20260507082003 | 57 | 124 | 4.3 | 7.8 | 0.00 | 0.00 | 0.00 | 74 | 1025.6 |
| 20260507081503 | 57 | 144 | 4.3 | 7.8 | 0.00 | 0.00 | 0.00 | 74 | 1025.6 |
| 20260507081003 | 57 | 183 | 4.3 | 11.3 | 0.00 | 0.00 | 0.00 | 74 | 1026.2 |
| 20260507080503 | 57 | 188 | 6.1 | 11.3 | 0.00 | 0.00 | 0.00 | 72 | 1026.1 |
| 20260507080003 | 57 | 184 | 6.1 | 11.3 | 0.00 | 0.00 | 0.00 | 73 | 1025.8 |
| 20260507075503 | 57 | 185 | 7.0 | 13.0 | 0.00 | 0.00 | 0.00 | 72 | 1025.8 |
| 20260507075003 | 57 | 202 | 8.7 | 16.5 | 0.00 | 0.00 | 0.00 | 73 | 1025.8 |
| 20260507074503 | 57 | 200 | 7.0 | 16.5 | 0.00 | 0.00 | 0.00 | 73 | 1025.7 |
| 20260507074024 | 57 | 180 | 5.2 | 10.4 | 0.00 | 0.00 | 0.00 | 75 | 1025.7 |
| 20260507073503 | 57 | 182 | 6.1 | 11.3 | 0.00 | 0.00 | 0.00 | 74 | 1025.8 |
| 20260507073003 | 57 | 172 | 6.1 | 12.2 | 0.00 | 0.00 | 0.00 | 76 | 1025.7 |
| 20260507072503 | 56 | 163 | 6.1 | 12.2 | 0.00 | 0.00 | 0.00 | 77 | 1025.5 |
| 20260507072003 | 56 | 164 | 7.0 | 12.2 | 0.00 | 0.00 | 0.00 | 78 | 1025.5 |
| 20260507071503 | 56 | 164 | 7.0 | 12.2 | 0.00 | 0.00 | 0.00 | 78 | 1025.5 |
| 20260507071003 | 56 | 160 | 6.1 | 11.3 | 0.00 | 0.00 | 0.00 | 78 | 1025.5 |
| 20260507070503 | 55 | 158 | 6.1 | 12.2 | 0.00 | 0.00 | 0.00 | 79 | 1025.3 |
| 20260507070005 | 55 | 162 | 6.1 | 12.2 | 0.00 | 0.00 | 0.00 | 80 | 1025.4 |
| 20260507065504 | 55 | 158 | 6.1 | 10.4 | 0.00 | 0.00 | 0.00 | 80 | 1025.2 |
| 20260507065003 | 55 | 163 | 5.2 | 9.6 | 0.00 | 0.00 | 0.00 | 80 | 1025.4 |
| 20260507064524 | 54 | 157 | 6.1 | 15.6 | 0.00 | 0.00 | 0.00 | 81 | 1025.5 |
| 20260507064004 | 54 | 151 | 7.0 | 15.6 | 0.00 | 0.00 | 0.00 | 81 | 1025.2 |
| 20260507063503 | 54 | 152 | 6.1 | 12.2 | 0.00 | 0.00 | 0.00 | 81 | 1025.3 |
| 20260507063024 | 54 | 150 | 6.1 | 10.4 | 0.00 | 0.00 | 0.00 | 83 | 1025.2 |
| 20260507062503 | 53 | 149 | 5.2 | 11.3 | 0.00 | 0.00 | 0.00 | 83 | 1025.3 |
| 20260507062003 | 53 | 149 | 5.2 | 11.3 | 0.00 | 0.00 | 0.00 | 84 | 1025.2 |
| 20260507061503 | 52 | 148 | 5.2 | 10.4 | 0.00 | 0.00 | 0.00 | 85 | 1025.3 |
| 20260507061003 | 52 | 147 | 5.2 | 10.4 | 0.00 | 0.00 | 0.00 | 85 | 1025.3 |
| 20260507060503 | 52 | 139 | 4.3 | 9.6 | 0.00 | 0.00 | 0.00 | 85 | 1025.3 |
| 20260507060003 | 52 | 134 | 4.3 | 9.6 | 0.00 | 0.00 | 0.00 | 85 | 1025.0 |
| 20260507055503 | 52 | 150 | 4.3 | 9.6 | 0.00 | 0.00 | 0.00 | 85 | 1025.2 |
| 20260507055003 | 52 | 155 | 5.2 | 10.4 | 0.00 | 0.00 | 0.00 | 86 | 1024.9 |
| 20260507054503 | 52 | 151 | 5.2 | 10.4 | 0.00 | 0.00 | 0.00 | 86 | 1024.9 |
| 20260507054024 | 52 | 152 | 4.3 | 9.6 | 0.00 | 0.00 | 0.00 | 86 | 1024.9 |
| 20260507053503 | 52 | 149 | 3.5 | 7.0 | 0.00 | 0.00 | 0.00 | 87 | 1024.9 |
| 20260507053003 | 51 | 127 | 2.6 | 5.2 | 0.00 | 0.00 | 0.00 | 87 | 1024.9 |
| 20260507052503 | 51 | 115 | 2.6 | 5.2 | 0.00 | 0.00 | 0.00 | 87 | 1024.9 |
| 20260507052024 | 51 | 121 | 2.6 | 5.2 | 0.00 | 0.00 | 0.00 | 86 | 1024.9 |
| 20260507051503 | 51 | 107 | 2.6 | 5.2 | 0.00 | 0.00 | 0.00 | 86 | 1024.8 |
| 20260507051003 | 51 | 67 | 2.6 | 4.3 | 0.00 | 0.00 | 0.00 | 86 | 1025.0 |
| 20260507050524 | 51 | 37 | 1.7 | 4.3 | 0.00 | 0.00 | 0.00 | 86 | 1024.8 |
| 20260507050003 | 51 | 19 | 1.7 | 5.2 | 0.00 | 0.00 | 0.00 | 86 | 1024.9 |
| 20260507045503 | 51 | 13 | 2.6 | 5.2 | 0.00 | 0.00 | 0.00 | 86 | 1024.7 |
| 20260507045003 | 51 | 6 | 2.6 | 5.2 | 0.00 | 0.00 | 0.00 | 85 | 1024.9 |
| 20260507044503 | 52 | 356 | 2.6 | 5.2 | 0.00 | 0.00 | 0.00 | 85 | 1024.8 |
| 20260507044003 | 52 | 302 | 1.7 | 3.5 | 0.00 | 0.00 | 0.00 | 84 | 1024.7 |
| 20260507043503 | 52 | 208 | 0.9 | 3.5 | 0.00 | 0.00 | 0.00 | 85 | 1024.5 |
| 20260507043004 | 52 | 292 | 1.7 | 4.3 | 0.00 | 0.00 | 0.00 | 85 | 1024.5 |
| 20260507042503 | 52 | 327 | 1.7 | 4.3 | 0.00 | 0.00 | 0.00 | 85 | 1024.7 |
| 20260507042003 | 52 | 245 | 1.7 | 3.5 | 0.00 | 0.00 | 0.00 | 84 | 1024.6 |
| 20260507041503 | 52 | 231 | 1.7 | 4.3 | 0.00 | 0.00 | 0.00 | 83 | 1024.7 |
| 20260507041003 | 52 | 204 | 2.6 | 7.8 | 0.00 | 0.00 | 0.00 | 83 | 1024.6 |
| 20260507040503 | 53 | 189 | 3.5 | 7.8 | 0.00 | 0.00 | 0.00 | 82 | 1024.6 |
| 20260507040003 | 53 | 183 | 3.5 | 6.1 | 0.00 | 0.00 | 0.00 | 82 | 1024.7 |
| 20260507035503 | 53 | 174 | 2.6 | 6.1 | 0.00 | 0.00 | 0.00 | 82 | 1024.6 |
| 20260507035003 | 53 | 167 | 3.5 | 6.1 | 0.00 | 0.00 | 0.00 | 81 | 1024.8 |
| 20260507034503 | 53 | 162 | 2.6 | 6.1 | 0.00 | 0.00 | 0.00 | 82 | 1024.9 |
| 20260507034003 | 53 | 159 | 2.6 | 5.2 | 0.00 | 0.00 | 0.00 | 81 | 1024.5 |
| 20260507033503 | 53 | 164 | 3.5 | 7.0 | 0.00 | 0.00 | 0.00 | 82 | 1024.7 |
| 20260507033024 | 53 | 162 | 3.5 | 8.7 | 0.00 | 0.00 | 0.00 | 81 | 1024.8 |
| 20260507032504 | 53 | 165 | 4.3 | 8.7 | 0.00 | 0.00 | 0.00 | 81 | 1024.6 |
| 20260507032003 | 53 | 169 | 4.3 | 8.7 | 0.00 | 0.00 | 0.00 | 81 | 1024.8 |
| 20260507031503 | 53 | 171 | 4.3 | 7.8 | 0.00 | 0.00 | 0.00 | 80 | 1024.7 |
| 20260507031003 | 53 | 168 | 3.5 | 7.0 | 0.00 | 0.00 | 0.00 | 80 | 1024.6 |
| 20260507030503 | 53 | 164 | 4.3 | 7.0 | 0.00 | 0.00 | 0.00 | 80 | 1024.6 |
| 20260507030004 | 52 | 175 | 3.5 | 7.0 | 0.00 | 0.00 | 0.00 | 80 | 1024.6 |
| 20260507025504 | 51 | 210 | 2.6 | 5.2 | 0.00 | 0.00 | 0.00 | 78 | 1024.6 |
| 20260507025003 | 51 | 234 | 2.6 | 5.2 | 0.00 | 0.00 | 0.00 | 74 | 1024.7 |
| 20260507024503 | 51 | 263 | 2.6 | 5.2 | 0.00 | 0.00 | 0.00 | 69 | 1024.8 |
| 20260507024003 | 51 | 249 | 2.6 | 5.2 | 0.00 | 0.00 | 0.00 | 68 | 1024.8 |
| 20260507023503 | 51 | 211 | 1.7 | 3.5 | 0.00 | 0.00 | 0.00 | 70 | 1024.9 |
| 20260507023003 | 51 | 197 | 0.9 | 1.7 | 0.00 | 0.00 | 0.00 | 72 | 1025.0 |
| 20260507022503 | 51 | 17 | 0.9 | 1.7 | 0.00 | 0.00 | 0.00 | 67 | 1024.8 |
| 20260507022024 | 51 | 45 | 0.9 | 3.5 | 0.00 | 0.00 | 0.00 | 65 | 1024.8 |
| 20260507021503 | 51 | 124 | 1.7 | 3.5 | 0.00 | 0.00 | 0.00 | 62 | 1024.9 |
| 20260507021003 | 51 | 139 | 2.6 | 4.3 | 0.00 | 0.00 | 0.00 | 61 | 1024.9 |
| 20260507020503 | 51 | 141 | 2.6 | 5.2 | 0.00 | 0.00 | 0.00 | 60 | 1024.8 |
| 20260507020004 | 51 | 142 | 3.5 | 5.2 | 0.00 | 0.00 | 0.00 | 59 | 1024.9 |
| 20260507015503 | 51 | 139 | 2.6 | 5.2 | 0.00 | 0.00 | 0.00 | 57 | 1024.8 |
| 20260507015003 | 52 | 118 | 2.6 | 5.2 | 0.00 | 0.00 | 0.00 | 56 | 1024.9 |
| 20260507014503 | 53 | 96 | 1.7 | 4.3 | 0.00 | 0.00 | 0.00 | 54 | 1025.1 |
| 20260507014003 | 54 | 157 | 1.7 | 5.2 | 0.00 | 0.00 | 0.00 | 51 | 1024.8 |
| 20260507013503 | 54 | 140 | 3.5 | 6.1 | 0.00 | 0.00 | 0.00 | 50 | 1024.6 |
| 20260507013004 | 54 | 96 | 3.5 | 6.1 | 0.00 | 0.00 | 0.00 | 51 | 1024.9 |
| 20260507012524 | 53 | 54 | 2.6 | 4.3 | 0.00 | 0.00 | 0.00 | 52 | 1024.7 |
| 20260507012003 | 54 | 358 | 1.7 | 3.5 | 0.00 | 0.00 | 0.00 | 52 | 1024.9 |
| 20260507011503 | 55 | 237 | 1.7 | 3.5 | 0.00 | 0.00 | 0.00 | 50 | 1024.8 |
| 20260507011003 | 54 | 176 | 1.7 | 3.5 | 0.00 | 0.00 | 0.00 | 51 | 1024.9 |
| 20260507010524 | 53 | 118 | 1.7 | 3.5 | 0.00 | 0.00 | 0.00 | 53 | 1025.2 |
| 20260507010003 | 54 | 154 | 1.7 | 2.6 | 0.00 | 0.00 | 0.00 | 52 | 1025.1 |
| 20260507005503 | 54 | 158 | 2.6 | 3.5 | 0.00 | 0.00 | 0.00 | 51 | 1025.0 |
| 20260507005003 | 54 | 144 | 1.7 | 3.5 | 0.00 | 0.00 | 0.00 | 52 | 1025.0 |
| 20260507004503 | 55 | 163 | 1.7 | 3.5 | 0.00 | 0.00 | 0.00 | 50 | 1025.2 |
| 20260507004003 | 55 | 198 | 0.9 | 3.5 | 0.00 | 0.00 | 0.00 | 49 | 1025.1 |
| 20260507003504 | 55 | 210 | 0.9 | 2.6 | 0.00 | 0.00 | 0.00 | 49 | 1025.2 |
| 20260507003025 | 55 | 227 | 0.9 | 2.6 | 0.00 | 0.00 | 0.00 | 49 | 1025.2 |
| 20260507002524 | 55 | 235 | 0.9 | 3.5 | 0.00 | 0.00 | 0.00 | 50 | 1025.2 |
| 20260507002003 | 55 | 215 | 0.9 | 3.5 | 0.00 | 0.00 | 0.00 | 50 | 1025.5 |
| 20260507001503 | 55 | 227 | 0.9 | 3.5 | 0.00 | 0.00 | 0.00 | 51 | 1025.3 |
| 20260507001003 | 54 | 227 | 0.9 | 3.5 | 0.00 | 0.00 | 0.00 | 51 | 1025.5 |
| 20260507000524 | 54 | 233 | 0.9 | 3.5 | 0.00 | 0.00 | 0.00 | 52 | 1025.4 |
| 20260507000003 | 54 | 250 | 1.7 | 2.6 | 0.00 | 0.00 | 0.00 | 52 | 1025.4 |
| 20260506235503 | 54 | 249 | 1.7 | 2.6 | 0.00 | 0.00 | 0.00 | 52 | 1025.4 |
| 20260506235003 | 54 | 235 | 1.7 | 3.5 | 0.00 | 0.00 | 0.00 | 52 | 1025.0 |
| 20260506234503 | 55 | 228 | 1.7 | 4.3 | 0.00 | 0.00 | 0.00 | 51 | 1025.4 |
| 20260506234003 | 55 | 240 | 1.7 | 4.3 | 0.00 | 0.00 | 0.00 | 51 | 1025.3 |
| 20260506233503 | 55 | 250 | 1.7 | 3.5 | 0.00 | 0.00 | 0.00 | 50 | 1025.7 |
| 20260506233003 | 56 | 237 | 1.7 | 3.5 | 0.00 | 0.00 | 0.00 | 49 | 1025.6 |
| 20260506232524 | 56 | 237 | 0.9 | 3.5 | 0.00 | 0.00 | 0.00 | 48 | 1025.6 |
| 20260506232003 | 56 | 19 | 0.9 | 2.6 | 0.00 | 0.00 | 0.00 | 48 | 1025.6 |
| 20260506231503 | 56 | 57 | 0.9 | 1.7 | 0.00 | 0.00 | 0.00 | 47 | 1025.4 |
| 20260506231003 | 57 | 139 | 0.9 | 1.7 | 0.00 | 0.00 | 0.00 | 46 | 1025.4 |
| 20260506230503 | 57 | 165 | 0.0 | 1.7 | 0.00 | 0.00 | 0.00 | 45 | 1025.6 |
| 20260506230024 | 57 | 194 | 0.9 | 2.6 | 0.00 | 0.00 | 0.00 | 45 | 1025.5 |
| 20260506225524 | 58 | 194 | 0.9 | 2.6 | 0.00 | 0.00 | 0.00 | 44 | 1025.5 |
| 20260506225003 | 57 | 196 | 0.9 | 2.6 | 0.00 | 0.00 | 0.00 | 44 | 1025.4 |
| 20260506224503 | 57 | 210 | 0.9 | 2.6 | 0.00 | 0.00 | 0.00 | 45 | 1025.4 |
| 20260506224003 | 57 | 215 | 0.9 | 1.7 | 0.00 | 0.00 | 0.00 | 45 | 1025.4 |
| 20260506223503 | 57 | 204 | 0.0 | 1.7 | 0.00 | 0.00 | 0.00 | 46 | 1025.4 |
| 20260506223003 | 57 | 337 | 0.0 | 2.6 | 0.00 | 0.00 | 0.00 | 46 | 1025.3 |
| 20260506222503 | 57 | 335 | 0.9 | 2.6 | 0.00 | 0.00 | 0.00 | 46 | 1025.2 |
| 20260506222003 | 57 | 342 | 0.9 | 2.6 | 0.00 | 0.00 | 0.00 | 46 | 1025.4 |
| 20260506221524 | 58 | 357 | 0.0 | 1.7 | 0.00 | 0.00 | 0.00 | 45 | 1025.4 |
| 20260506221003 | 58 | 138 | 0.0 | 1.7 | 0.00 | 0.00 | 0.00 | 43 | 1025.6 |
| 20260506220503 | 59 | 171 | 0.0 | 1.7 | 0.00 | 0.00 | 0.00 | 42 | 1025.2 |
| 20260506220004 | 59 | 218 | 0.9 | 1.7 | 0.00 | 0.00 | 0.00 | 42 | 1025.3 |
| 20260506215524 | 60 | 220 | 0.9 | 1.7 | 0.00 | 0.00 | 0.00 | 41 | 1025.5 |
| 20260506215003 | 60 | 182 | 0.0 | 1.7 | 0.00 | 0.00 | 0.00 | 40 | 1025.4 |
| 20260506214503 | 60 | 185 | 0.0 | 1.7 | 0.00 | 0.00 | 0.00 | 39 | 1025.5 |
| 20260506214003 | 61 | 178 | 0.0 | 1.7 | 0.00 | 0.00 | 0.00 | 39 | 1025.5 |
| 20260506213524 | 61 | 134 | 0.0 | 1.7 | 0.00 | 0.00 | 0.00 | 38 | 1025.4 |
| 20260506213003 | 61 | 89 | 0.0 | 0.9 | 0.00 | 0.00 | 0.00 | 38 | 1025.3 |
| 20260506212524 | 61 | 119 | 0.9 | 3.5 | 0.00 | 0.00 | 0.00 | 38 | 1025.4 |
| 20260506212003 | 61 | 127 | 1.7 | 4.3 | 0.00 | 0.00 | 0.00 | 38 | 1025.5 |
| 20260506211503 | 61 | 125 | 3.5 | 4.3 | 0.00 | 0.00 | 0.00 | 38 | 1025.5 |
| 20260506211003 | 62 | 124 | 3.5 | 5.2 | 0.00 | 0.00 | 0.00 | 37 | 1025.5 |
| 20260506210524 | 62 | 119 | 3.5 | 5.2 | 0.00 | 0.00 | 0.00 | 37 | 1025.4 |
| 20260506210004 | 62 | 118 | 2.6 | 4.3 | 0.00 | 0.00 | 0.00 | 37 | 1025.4 |
| 20260506205503 | 62 | 109 | 3.5 | 5.2 | 0.00 | 0.00 | 0.00 | 38 | 1025.4 |
| 20260506205003 | 62 | 104 | 4.3 | 6.1 | 0.00 | 0.00 | 0.00 | 37 | 1025.3 |
| 20260506204503 | 62 | 105 | 3.5 | 6.1 | 0.00 | 0.00 | 0.00 | 37 | 1025.3 |
| 20260506204003 | 62 | 107 | 2.6 | 5.2 | 0.00 | 0.00 | 0.00 | 37 | 1025.4 |
| 20260506203503 | 62 | 105 | 2.6 | 5.2 | 0.00 | 0.00 | 0.00 | 37 | 1025.2 |
| 20260506203003 | 62 | 105 | 3.5 | 5.2 | 0.00 | 0.00 | 0.00 | 37 | 1025.4 |
| 20260506202524 | 62 | 107 | 2.6 | 4.3 | 0.00 | 0.00 | 0.00 | 37 | 1025.4 |
| 20260506202003 | 62 | 107 | 2.6 | 4.3 | 0.00 | 0.00 | 0.00 | 37 | 1025.3 |
| 20260506201503 | 62 | 108 | 2.6 | 4.3 | 0.00 | 0.00 | 0.00 | 37 | 1025.3 |
| 20260506201003 | 62 | 105 | 1.7 | 3.5 | 0.00 | 0.00 | 0.00 | 37 | 1025.1 |
| 20260506200504 | 62 | 102 | 1.7 | 3.5 | 0.00 | 0.00 | 0.00 | 37 | 1025.1 |
| 20260506200004 | 62 | 105 | 1.7 | 3.5 | 0.00 | 0.00 | 0.00 | 37 | 1025.0 |
| 20260506195503 | 62 | 106 | 1.7 | 3.5 | 0.00 | 0.00 | 0.00 | 37 | 1025.1 |
| 20260506195003 | 62 | 109 | 1.7 | 3.5 | 0.00 | 0.00 | 0.00 | 37 | 1025.1 |
| 20260506194503 | 63 | 107 | 1.7 | 3.5 | 0.00 | 0.00 | 0.00 | 37 | 1025.0 |
| 20260506194003 | 63 | 103 | 2.6 | 5.2 | 0.00 | 0.00 | 0.00 | 37 | 1025.0 |
| 20260506193503 | 63 | 107 | 2.6 | 5.2 | 0.00 | 0.00 | 0.00 | 37 | 1024.9 |
| 20260506193003 | 63 | 117 | 2.6 | 4.3 | 0.00 | 0.00 | 0.00 | 36 | 1025.0 |
| 20260506192503 | 63 | 117 | 2.6 | 4.3 | 0.00 | 0.00 | 0.00 | 36 | 1025.0 |
| 20260506192003 | 64 | 109 | 2.6 | 5.2 | 0.00 | 0.00 | 0.00 | 36 | 1025.0 |
| 20260506191503 | 64 | 105 | 3.5 | 5.2 | 0.00 | 0.00 | 0.00 | 36 | 1025.0 |
| 20260506191003 | 64 | 108 | 3.5 | 5.2 | 0.00 | 0.00 | 0.00 | 35 | 1024.7 |
| 20260506190503 | 64 | 113 | 2.6 | 4.3 | 0.00 | 0.00 | 0.00 | 36 | 1025.1 |
| 20260506190003 | 65 | 119 | 2.6 | 4.3 | 0.00 | 0.00 | 0.00 | 35 | 1024.8 |
| 20260506185503 | 65 | 128 | 3.5 | 4.3 | 0.00 | 0.00 | 0.00 | 35 | 1024.8 |
| 20260506185003 | 65 | 129 | 3.5 | 5.2 | 0.00 | 0.00 | 0.00 | 34 | 1024.7 |
| 20260506184524 | 66 | 125 | 3.5 | 5.2 | 0.00 | 0.00 | 0.00 | 34 | 1024.8 |
| 20260506184003 | 66 | 125 | 3.5 | 5.2 | 0.00 | 0.00 | 0.00 | 34 | 1024.7 |
| 20260506183503 | 66 | 129 | 4.3 | 7.0 | 0.00 | 0.00 | 0.00 | 33 | 1025.0 |
| 20260506183005 | 66 | 132 | 4.3 | 7.8 | 0.00 | 0.00 | 0.00 | 33 | 1024.8 |
| 20260506182503 | 66 | 131 | 5.2 | 7.8 | 0.00 | 0.00 | 0.00 | 33 | 1024.6 |
| 20260506182024 | 66 | 128 | 5.2 | 8.7 | 0.00 | 0.00 | 0.00 | 33 | 1024.7 |
| 20260506181524 | 66 | 130 | 5.2 | 8.7 | 0.00 | 0.00 | 0.00 | 33 | 1024.8 |
| 20260506181003 | 66 | 130 | 4.3 | 7.0 | 0.00 | 0.00 | 0.00 | 33 | 1024.8 |
| 20260506180503 | 66 | 132 | 5.2 | 7.8 | 0.00 | 0.00 | 0.00 | 33 | 1025.0 |
| 20260506180004 | 66 | 136 | 5.2 | 7.8 | 0.00 | 0.00 | 0.00 | 33 | 1024.8 |
| 20260506175503 | 66 | 136 | 5.2 | 8.7 | 0.00 | 0.00 | 0.00 | 33 | 1024.9 |
| 20260506175024 | 67 | 134 | 5.2 | 8.7 | 0.00 | 0.00 | 0.00 | 33 | 1025.0 |
| 20260506174503 | 66 | 131 | 4.3 | 7.8 | 0.00 | 0.00 | 0.00 | 33 | 1024.8 |
| 20260506174003 | 66 | 124 | 3.5 | 5.2 | 0.00 | 0.00 | 0.00 | 33 | 1024.8 |
| 20260506173503 | 66 | 126 | 3.5 | 7.0 | 0.00 | 0.00 | 0.00 | 33 | 1025.0 |
| 20260506173024 | 66 | 137 | 4.3 | 7.8 | 0.00 | 0.00 | 0.00 | 33 | 1024.9 |
| 20260506172503 | 66 | 136 | 5.2 | 8.7 | 0.00 | 0.00 | 0.00 | 33 | 1025.1 |
| 20260506172024 | 66 | 132 | 5.2 | 8.7 | 0.00 | 0.00 | 0.00 | 32 | 1024.9 |
| 20260506171504 | 66 | 138 | 5.2 | 8.7 | 0.00 | 0.00 | 0.00 | 33 | 1025.0 |
| 20260506171003 | 66 | 138 | 5.2 | 9.6 | 0.00 | 0.00 | 0.00 | 33 | 1025.1 |
| 20260506170504 | 67 | 143 | 5.2 | 9.6 | 0.00 | 0.00 | 0.00 | 33 | 1025.1 |
| 20260506170003 | 67 | 147 | 5.2 | 11.3 | 0.00 | 0.00 | 0.00 | 33 | 1025.1 |
| 20260506165503 | 67 | 153 | 6.1 | 11.3 | 0.00 | 0.00 | 0.00 | 32 | 1025.1 |
| 20260506165003 | 67 | 152 | 5.2 | 10.4 | 0.00 | 0.00 | 0.00 | 33 | 1025.2 |
| 20260506164503 | 67 | 129 | 4.3 | 10.4 | 0.00 | 0.00 | 0.00 | 32 | 1025.1 |
| 20260506164003 | 67 | 147 | 3.5 | 7.8 | 0.00 | 0.00 | 0.00 | 32 | 1024.8 |
| 20260506163503 | 67 | 156 | 3.5 | 6.1 | 0.00 | 0.00 | 0.00 | 32 | 1025.0 |
| 20260506163003 | 68 | 143 | 3.5 | 6.1 | 0.00 | 0.00 | 0.00 | 32 | 1024.9 |
| 20260506162503 | 68 | 126 | 2.6 | 6.1 | 0.00 | 0.00 | 0.00 | 30 | 1025.0 |
| 20260506162004 | 68 | 121 | 3.5 | 7.8 | 0.00 | 0.00 | 0.00 | 30 | 1025.3 |
| 20260506161524 | 68 | 129 | 3.5 | 7.8 | 0.00 | 0.00 | 0.00 | 30 | 1025.1 |
| 20260506161003 | 67 | 126 | 2.6 | 6.1 | 0.00 | 0.00 | 0.00 | 31 | 1025.3 |
| 20260506160504 | 67 | 77 | 3.5 | 8.7 | 0.00 | 0.00 | 0.00 | 32 | 1024.9 |
| 20260506160003 | 67 | 66 | 3.5 | 8.7 | 0.00 | 0.00 | 0.00 | 32 | 1025.1 |
| 20260506155503 | 67 | 63 | 2.6 | 5.2 | 0.00 | 0.00 | 0.00 | 33 | 1025.1 |
| 20260506155003 | 67 | 169 | 2.6 | 4.3 | 0.00 | 0.00 | 0.00 | 33 | 1025.3 |
| 20260506154503 | 67 | 185 | 3.5 | 6.1 | 0.00 | 0.00 | 0.00 | 32 | 1025.4 |
| 20260506154003 | 67 | 194 | 3.5 | 6.1 | 0.00 | 0.00 | 0.00 | 33 | 1025.3 |
| 20260506153503 | 67 | 36 | 3.5 | 11.3 | 0.00 | 0.00 | 0.00 | 33 | 1025.2 |
| 20260506153003 | 67 | 50 | 3.5 | 11.3 | 0.00 | 0.00 | 0.00 | 32 | 1025.3 |
| 20260506152503 | 68 | 118 | 2.6 | 7.0 | 0.00 | 0.00 | 0.00 | 32 | 1025.6 |
| 20260506152003 | 67 | 165 | 2.6 | 7.8 | 0.00 | 0.00 | 0.00 | 32 | 1025.4 |
| 20260506151503 | 67 | 138 | 1.7 | 7.8 | 0.00 | 0.00 | 0.00 | 32 | 1025.7 |
| 20260506151003 | 68 | 30 | 2.6 | 7.8 | 0.00 | 0.00 | 0.00 | 32 | 1025.8 |
| 20260506150503 | 68 | 31 | 4.3 | 10.4 | 0.00 | 0.00 | 0.00 | 32 | 1025.6 |
| 20260506150003 | 68 | 44 | 4.3 | 11.3 | 0.00 | 0.00 | 0.00 | 31 | 1025.8 |
| 20260506145503 | 69 | 51 | 4.3 | 11.3 | 0.00 | 0.00 | 0.00 | 31 | 1026.0 |
| 20260506145003 | 69 | 52 | 4.3 | 10.4 | 0.00 | 0.00 | 0.00 | 32 | 1026.0 |
| 20260506144503 | 68 | 75 | 4.3 | 10.4 | 0.00 | 0.00 | 0.00 | 32 | 1026.1 |
| 20260506144003 | 68 | 103 | 5.2 | 10.4 | 0.00 | 0.00 | 0.00 | 32 | 1026.1 |
| 20260506143503 | 67 | 99 | 5.2 | 11.3 | 0.00 | 0.00 | 0.00 | 34 | 1026.2 |
| 20260506143003 | 68 | 98 | 5.2 | 15.6 | 0.00 | 0.00 | 0.00 | 33 | 1026.3 |
| 20260506142503 | 68 | 133 | 5.2 | 15.6 | 0.00 | 0.00 | 0.00 | 33 | 1026.4 |
| 20260506142003 | 67 | 139 | 3.5 | 9.6 | 0.00 | 0.00 | 0.00 | 33 | 1026.2 |
| 20260506141503 | 67 | 61 | 2.6 | 6.1 | 0.00 | 0.00 | 0.00 | 32 | 1026.6 |
| 20260506141024 | 67 | 108 | 5.2 | 13.0 | 0.00 | 0.00 | 0.00 | 33 | 1026.4 |
| 20260506140524 | 67 | 111 | 5.2 | 13.0 | 0.00 | 0.00 | 0.00 | 33 | 1026.5 |
| 20260506140003 | 67 | 74 | 2.6 | 7.0 | 0.00 | 0.00 | 0.00 | 33 | 1026.5 |
| 20260506135503 | 65 | 67 | 3.5 | 7.0 | 0.00 | 0.00 | 0.00 | 34 | 1026.4 |
| 20260506135003 | 65 | 64 | 4.3 | 10.4 | 0.00 | 0.00 | 0.00 | 35 | 1026.7 |
| 20260506134503 | 65 | 67 | 4.3 | 10.4 | 0.00 | 0.00 | 0.00 | 35 | 1026.6 |
| 20260506134003 | 64 | 76 | 4.3 | 9.6 | 0.00 | 0.00 | 0.00 | 36 | 1026.7 |
| 20260506133503 | 65 | 95 | 5.2 | 12.2 | 0.00 | 0.00 | 0.00 | 35 | 1026.7 |
| 20260506133003 | 65 | 109 | 6.1 | 12.2 | 0.00 | 0.00 | 0.00 | 35 | 1026.6 |
| 20260506132503 | 66 | 113 | 5.2 | 11.3 | 0.00 | 0.00 | 0.00 | 35 | 1026.8 |
| 20260506132003 | 65 | 135 | 4.3 | 8.7 | 0.00 | 0.00 | 0.00 | 35 | 1026.9 |
| 20260506131503 | 65 | 163 | 5.2 | 8.7 | 0.00 | 0.00 | 0.00 | 35 | 1026.7 |
| 20260506131003 | 65 | 166 | 5.2 | 11.3 | 0.00 | 0.00 | 0.00 | 35 | 1027.0 |
| 20260506130503 | 66 | 144 | 4.3 | 11.3 | 0.00 | 0.00 | 0.00 | 34 | 1027.1 |
| 20260506130004 | 67 | 86 | 2.6 | 7.0 | 0.00 | 0.00 | 0.00 | 33 | 1027.2 |
| 20260506125524 | 66 | 82 | 3.5 | 7.0 | 0.00 | 0.00 | 0.00 | 34 | 1027.1 |
| 20260506125003 | 66 | 98 | 4.3 | 8.7 | 0.00 | 0.00 | 0.00 | 34 | 1027.2 |
| 20260506124503 | 67 | 133 | 5.2 | 11.3 | 0.00 | 0.00 | 0.00 | 34 | 1027.4 |
| 20260506124004 | 66 | 144 | 4.3 | 11.3 | 0.00 | 0.00 | 0.00 | 35 | 1027.1 |
| 20260506123503 | 66 | 188 | 3.5 | 11.3 | 0.00 | 0.00 | 0.00 | 36 | 1027.2 |
| 20260506123003 | 65 | 270 | 3.5 | 9.6 | 0.00 | 0.00 | 0.00 | 36 | 1027.3 |
| 20260506122503 | 65 | 267 | 3.5 | 9.6 | 0.00 | 0.00 | 0.00 | 35 | 1027.4 |
| 20260506122003 | 65 | 283 | 2.6 | 7.0 | 0.00 | 0.00 | 0.00 | 36 | 1027.7 |
| 20260506121503 | 65 | 252 | 2.6 | 7.0 | 0.00 | 0.00 | 0.00 | 36 | 1027.7 |
| 20260506121003 | 64 | 205 | 3.5 | 7.8 | 0.00 | 0.00 | 0.00 | 37 | 1027.6 |
| 20260506120503 | 64 | 154 | 4.3 | 8.7 | 0.00 | 0.00 | 0.00 | 38 | 1027.9 |
| 20260506120024 | 64 | 156 | 4.3 | 8.7 | 0.00 | 0.00 | 0.00 | 38 | 1028.0 |
| 20260506115503 | 64 | 235 | 2.6 | 7.8 | 0.00 | 0.00 | 0.00 | 37 | 1027.8 |
| 20260506115024 | 64 | 358 | 2.6 | 7.0 | 0.00 | 0.00 | 0.00 | 39 | 1028.1 |
| 20260506114503 | 63 | 34 | 2.6 | 7.0 | 0.00 | 0.00 | 0.00 | 39 | 1027.7 |